Terminal Aerodrome Forecast
Issued by NWS

Home | Current Version | Previous Version | Text Only | Print | Product List | Glossary On
Versions: 1 2 3 4 5 6 7 8 9 10 11 12 13
000
FTUS45 KTFX 270900 AAA
TAFBZN
TAF AMD
KBZN 270917Z 2709/2806 VRB03KT 1/4SM FZFG VV001
      TEMPO 2709/2712 3SM BR SCT001 BKN030
     FM271500 VRB05KT P6SM SCT040 BKN070 BKN150
     FM271800 21008KT P6SM VCSH SCT035 OVC060 PROB30 2721/2802 5SM
      -SN BR BKN030
     FM280200 18011KT 5SM -SN BR SCT015 OVC025 PROB30 2802/2806 2SM
      -SN BR BKN015=

USA.gov is the U.S. government's official web portal to all federal, state and local government web resources and services.